Flag for U.S.A. Weather past 2 weeks in Bakersfield, California, U.S.A.

Now
69 °F

Clear.


Feels Like: 69 °F
Forecast: 61 / 89 °F
Wind: 6 mph from Southeast

Location: Meadows Field


UV Index: 5 (Moderate)

Visibility: 10 mi


Pressure: 30.04 "Hg

Humidity: 35%

Dew point: 40 °F

Location of BakersfieldLocation

Historic Weather in Bakersfield

°F

Bakersfield temperature yesterday

Maximum temperature yesterday: 81 °F (at 4:54 PM)
Minimum temperature yesterday: 56 °F (at 6:54 AM)
Average temperature yesterday: 69 °F

Past Weeks' High & Low Weather Summary

 TemperatureHumidityPressure
High92 °F (Apr 8, 3:54 PM)72% (Apr 6, 1:54 AM)30.21 "Hg (Apr 6, 1:54 AM)
Low50 °F (Apr 6, 6:54 AM)8% (Apr 9, 3:54 PM)29.71 "Hg (Apr 11, 5:54 PM)
Average72 °F36%29.94 "Hg
* Reported Apr 5 11:54 PM — Apr 20 11:54 PM, Bakersfield, Weather by CustomWeather, © 2014

Note: Actual official high and low records may vary slightly from our data, if they occured in-between our weather recording intervals... More about our weather records

Advertising

Historic Weather Conditions — Data for Previous 24 hours

 ConditionsComfort  
Time TempWeatherWind HumidityBarometerVisibility
11:54 PM
Apr 20
69 °FClear.6 mph35%30.04 "Hg10 mi
10:54 PM70 °FClear.No wind30%30.03 "Hg10 mi
9:54 PM71 °FClear.3 mph31%30.04 "Hg10 mi
8:54 PM73 °FClear.3 mph30%30.03 "Hg10 mi
7:54 PM76 °FSunny.5 mph26%30.02 "Hg10 mi
6:54 PM78 °FSunny.10 mph24%30.01 "Hg10 mi
5:54 PM79 °FSunny.12 mph25%30.01 "Hg10 mi
4:54 PM81 °FSunny.9 mph23%30.00 "Hg10 mi
3:54 PM80 °FSunny.7 mph22%30.02 "Hg10 mi
2:54 PM79 °FSunny.N/A24%30.04 "Hg10 mi
1:54 PM78 °FSunny.8 mph27%30.07 "Hg10 mi
12:54 PM75 °FSunny.9 mph32%30.08 "Hg10 mi
11:54 AM73 °FSunny.7 mph37%30.09 "Hg10 mi
10:54 AM70 °FSunny.No wind41%30.11 "Hg10 mi
9:54 AM66 °FSunny.5 mph47%30.11 "Hg10 mi
8:54 AM63 °FSunny.No wind48%30.11 "Hg10 mi
7:54 AM61 °FSunny.5 mph48%30.10 "Hg10 mi
6:54 AM56 °FClear.No wind53%30.09 "Hg10 mi
5:54 AM57 °FClear.No wind51%30.07 "Hg10 mi
4:54 AM58 °FClear.No wind50%30.07 "Hg10 mi
3:54 AM57 °FClear.No wind49%30.08 "Hg10 mi
2:54 AM60 °FClear.No wind46%30.08 "Hg10 mi
1:54 AM59 °FClear.7 mph49%30.06 "Hg10 mi
Weather by CustomWeather, © 2014

See weather overview